,,,PA_Meas_PMT16A,,PR_Meas_QMR101_102,,RH_Meas_QMH101,,SR_Meas_QMS101,,TA_Meas_QMH101,,GenWind,,GenWind,
date,time,status,PA,status,PR,status,RH,status,SR,status,TA,status,DirAvg,status,SpdAvg,
2012-05-20, 00:00:05,VALID,1009.28,VALID,0,VALID,103.237,VALID,0,VALID,24.6081,VALID,149,VALID,0.921094,
2012-05-20, 00:01:05,VALID,1009.26,VALID,0,VALID,103.687,VALID,0,VALID,24.6081,VALID,146,VALID,0.328906,
2012-05-20, 00:02:05,VALID,1009.29,VALID,0,VALID,103.748,VALID,0,VALID,24.5905,VALID,116,VALID,0.4,
2012-05-20, 00:03:05,VALID,1009.31,VALID,0,VALID,103.794,VALID,0,VALID,24.571,VALID,116,VALID,0,
2012-05-20, 00:04:05,VALID,1009.3,VALID,0,VALID,104,VALID,0,VALID,24.571,VALID,116,VALID,0,
2012-05-20, 00:05:05,VALID,1009.27,VALID,0,VALID,104,VALID,0,VALID,24.571,VALID,116,VALID,0,
2012-05-20, 00:06:05,VALID,1009.22,VALID,0,VALID,104,VALID,0,VALID,24.5301,VALID,116,VALID,0.375391,
2012-05-20, 00:07:05,VALID,1009.21,VALID,0,VALID,104,VALID,0,VALID,24.571,VALID,116,VALID,0.6,
2012-05-20, 00:08:05,VALID,1009.15,VALID,0,VALID,104,VALID,0,VALID,24.5905,VALID,158,VALID,0.537109,
2012-05-20, 00:09:05,VALID,1009.1,VALID,0,VALID,104,VALID,0,VALID,24.6276,VALID,236,VALID,0.293359,
2012-05-20, 00:10:05,VALID,1009.07,VALID,0,VALID,104,VALID,0,VALID,24.6684,VALID,284,VALID,0.637109,
2012-05-20, 00:11:05,VALID,1009,VALID,0,VALID,104,VALID,0,VALID,24.6471,VALID,297,VALID,1.04805,
2012-05-20, 00:12:05,VALID,1009.02,VALID,0,VALID,104,VALID,0,VALID,24.6684,VALID,317,VALID,0.522656,
2012-05-20, 00:13:05,VALID,1008.97,VALID,0,VALID,104,VALID,0,VALID,24.6879,VALID,318,VALID,0.495313,
2012-05-20, 00:14:05,VALID,1008.91,VALID,0,VALID,104,VALID,0,VALID,24.7074,VALID,318,VALID,0.0621094,
2012-05-20, 00:15:05,VALID,1008.87,VALID,0,VALID,104,VALID,0,VALID,24.7074,VALID,319,VALID,0.635156,
2012-05-20, 00:16:05,VALID,1008.86,VALID,0,VALID,104,VALID,0,VALID,24.6684,VALID,14,VALID,0.805469,
2012-05-20, 00:17:05,VALID,1008.85,VALID,0,VALID,104,VALID,0,VALID,24.6489,VALID,21,VALID,0.426953,
2012-05-20, 00:18:05,VALID,1008.83,VALID,0,VALID,104,VALID,0,VALID,24.6489,VALID,30,VALID,0.762109,
2012-05-20, 00:19:05,VALID,1008.75,VALID,0,VALID,104,VALID,0,VALID,24.6489,VALID,30,VALID,0.635547,
2012-05-20, 00:20:05,VALID,1008.7,VALID,0,VALID,104,VALID,0,VALID,24.6276,VALID,30,VALID,0.275781,
2012-05-20, 00:21:05,VALID,1008.71,VALID,0,VALID,104,VALID,0,VALID,24.6489,VALID,30,VALID,0,
2012-05-20, 00:22:05,VALID,1008.66,VALID,0,VALID,104,VALID,0,VALID,24.6099,VALID,30,VALID,0.368359,
2012-05-20, 00:23:05,VALID,1008.58,VALID,0,VALID,104,VALID,0,VALID,24.5691,VALID,31,VALID,0.284375,
2012-05-20, 00:24:05,VALID,1008.61,VALID,0,VALID,104,VALID,0,VALID,24.6099,VALID,10,VALID,0.456641,
2012-05-20, 00:25:05,VALID,1008.65,VALID,0,VALID,104,VALID,0.112112,VALID,24.6276,VALID,9,VALID,0.142578,
2012-05-20, 00:26:05,VALID,1008.65,VALID,0,VALID,104,VALID,0,VALID,24.6489,VALID,9,VALID,0,
2012-05-20, 00:27:05,VALID,1008.65,VALID,0,VALID,104,VALID,0,VALID,24.6489,VALID,9,VALID,0.193359,
2012-05-20, 00:28:05,VALID,1008.64,VALID,0,VALID,104,VALID,0,VALID,24.6276,VALID,6,VALID,0.274219,
2012-05-20, 00:29:05,VALID,1008.66,VALID,0,VALID,104,VALID,0.112112,VALID,24.6471,VALID,4,VALID,0.244922,
2012-05-20, 00:30:05,VALID,1008.62,VALID,0,VALID,104,VALID,0,VALID,24.6471,VALID,4,VALID,0.225,
2012-05-20, 00:31:05,VALID,1008.59,VALID,0,VALID,104,VALID,0,VALID,24.6471,VALID,318,VALID,0.644141,
2012-05-20, 00:32:05,VALID,1008.54,VALID,0,VALID,104,VALID,0,VALID,24.6666,VALID,279,VALID,0.334766,
2012-05-20, 00:33:05,VALID,1008.48,VALID,0,VALID,104,VALID,0,VALID,24.7269,VALID,275,VALID,0.213281,
2012-05-20, 00:34:05,VALID,1008.44,VALID,0,VALID,104,VALID,0,VALID,24.7464,VALID,273,VALID,0.479297,
2012-05-20, 00:35:05,VALID,1008.39,VALID,0,VALID,104,VALID,0,VALID,24.725,VALID,259,VALID,0.707812,
2012-05-20, 00:36:05,VALID,1008.34,VALID,0,VALID,104,VALID,0.112112,VALID,24.725,VALID,279,VALID,0.498828,
2012-05-20, 00:37:05,VALID,1008.29,VALID,0,VALID,104,VALID,0,VALID,24.7464,VALID,271,VALID,0.517578,
2012-05-20, 00:38:05,VALID,1008.25,VALID,0,VALID,104,VALID,0,VALID,24.7659,VALID,272,VALID,0.0148437,
2012-05-20, 00:39:05,VALID,1008.23,VALID,0,VALID,104,VALID,0,VALID,24.7854,VALID,288,VALID,0.329297,
2012-05-20, 00:40:05,VALID,1008.23,VALID,0,VALID,104,VALID,0,VALID,24.7659,VALID,283,VALID,0.00859375,
2012-05-20, 00:41:05,VALID,1008.21,VALID,0,VALID,104,VALID,0,VALID,24.7445,VALID,264,VALID,0.405078,
2012-05-20, 00:42:05,VALID,1008.17,VALID,0,VALID,104,VALID,0.112112,VALID,24.7464,VALID,228,VALID,0.642578,
2012-05-20, 00:43:05,VALID,1008.16,VALID,0,VALID,104,VALID,0,VALID,24.7445,VALID,195,VALID,0.685547,
2012-05-20, 00:44:05,VALID,1008.15,VALID,0,VALID,104,VALID,0,VALID,24.7659,VALID,213,VALID,0.161328,
2012-05-20, 00:45:05,VALID,1008.09,VALID,0,VALID,104,VALID,0,VALID,24.7464,VALID,205,VALID,0.583594,
2012-05-20, 00:46:05,VALID,1008.07,VALID,0,VALID,104,VALID,0,VALID,24.7659,VALID,184,VALID,0.874219,
2012-05-20, 00:47:05,VALID,1008.07,VALID,0,VALID,104,VALID,0,VALID,24.7659,VALID,201,VALID,0.784375,
2012-05-20, 00:48:05,VALID,1008.06,VALID,0,VALID,104,VALID,0,VALID,24.7659,VALID,187,VALID,0.760547,
2012-05-20, 00:49:05,VALID,1008.04,VALID,0,VALID,104,VALID,0,VALID,24.7464,VALID,177,VALID,0.734375,
2012-05-20, 00:50:05,VALID,1008.04,VALID,0,VALID,104,VALID,0,VALID,24.7659,VALID,178,VALID,0.6625,
2012-05-20, 00:51:05,VALID,1008.02,VALID,0,VALID,104,VALID,0,VALID,24.7659,VALID,188,VALID,0.713672,
2012-05-20, 00:52:05,VALID,1008.03,VALID,0,VALID,104,VALID,0,VALID,24.7464,VALID,227,VALID,0.291406,
2012-05-20, 00:53:05,VALID,1008.02,VALID,0,VALID,104,VALID,0,VALID,24.8049,VALID,227,VALID,0,
2012-05-20, 00:54:05,VALID,1007.99,VALID,0,VALID,104,VALID,0,VALID,24.764,VALID,226,VALID,0.272266,
2012-05-20, 00:55:05,VALID,1007.95,VALID,0,VALID,104,VALID,0,VALID,24.8049,VALID,226,VALID,0.712891,
2012-05-20, 00:56:05,VALID,1007.88,VALID,0,VALID,104,VALID,0,VALID,24.8049,VALID,214,VALID,1.12852,
2012-05-20, 00:57:05,VALID,1007.86,VALID,0,VALID,104,VALID,0,VALID,24.8438,VALID,226,VALID,0.921094,
2012-05-20, 00:58:05,VALID,1007.86,VALID,0,VALID,104,VALID,0,VALID,24.8438,VALID,199,VALID,0.967969,
2012-05-20, 00:59:05,VALID,1007.85,VALID,0,VALID,104,VALID,0,VALID,24.8615,VALID,216,VALID,0.462109,
2012-05-20, 01:00:05,VALID,1007.84,VALID,0,VALID,104,VALID,0,VALID,24.842,VALID,189,VALID,1.00703,
2012-05-20, 01:01:05,VALID,1007.82,VALID,0,VALID,104,VALID,0.112112,VALID,24.8615,VALID,185,VALID,0.835156,
2012-05-20, 01:02:05,VALID,1007.82,VALID,0,VALID,104,VALID,0.112112,VALID,24.8828,VALID,190,VALID,0.81875,
2012-05-20, 01:03:05,VALID,1007.82,VALID,0,VALID,104,VALID,0,VALID,24.8615,VALID,192,VALID,0.852734,
2012-05-20, 01:04:05,VALID,1007.81,VALID,0,VALID,104,VALID,0,VALID,24.8615,VALID,201,VALID,0.794531,
2012-05-20, 01:05:05,VALID,1007.82,VALID,0,VALID,104,VALID,0,VALID,24.9023,VALID,189,VALID,0.690234,
2012-05-20, 01:06:05,VALID,1007.78,VALID,0,VALID,104,VALID,0,VALID,24.8809,VALID,224,VALID,0.898438,
2012-05-20, 01:07:05,VALID,1007.78,VALID,0,VALID,104,VALID,0,VALID,24.9413,VALID,219,VALID,0.312891,
2012-05-20, 01:08:05,VALID,1007.76,VALID,0,VALID,104,VALID,0,VALID,24.9608,VALID,203,VALID,0.0195313,
2012-05-20, 01:09:05,VALID,1007.76,VALID,0,VALID,104,VALID,0,VALID,24.9608,VALID,203,VALID,0.0417969,
2012-05-20, 01:10:05,VALID,1007.77,VALID,0,VALID,104,VALID,0,VALID,24.9608,VALID,203,VALID,0,
2012-05-20, 01:11:05,VALID,1007.77,VALID,0,VALID,104,VALID,0,VALID,24.9199,VALID,203,VALID,0.0253906,
2012-05-20, 01:12:05,VALID,1007.77,VALID,0,VALID,104,VALID,0,VALID,24.9413,VALID,203,VALID,0,
2012-05-20, 01:13:05,VALID,1007.77,VALID,0,VALID,104,VALID,0,VALID,24.9608,VALID,203,VALID,0,
2012-05-20, 01:14:05,VALID,1007.76,VALID,0,VALID,104,VALID,0,VALID,24.9413,VALID,203,VALID,0,
2012-05-20, 01:15:05,VALID,1007.75,VALID,0,VALID,104,VALID,0.112112,VALID,24.9413,VALID,203,VALID,0,
2012-05-20, 01:16:05,VALID,1007.73,VALID,0,VALID,104,VALID,0.112112,VALID,24.9589,VALID,203,VALID,0.265234,
2012-05-20, 01:17:05,VALID,1007.7,VALID,0,VALID,104,VALID,0.112112,VALID,25.0193,VALID,203,VALID,0.262109,
2012-05-20, 01:18:05,VALID,1007.69,VALID,0,VALID,104,VALID,0.112112,VALID,25.0193,VALID,203,VALID,0.503516,
2012-05-20, 01:19:05,VALID,1007.65,VALID,0,VALID,104,VALID,0,VALID,24.9784,VALID,185,VALID,0.599219,
2012-05-20, 01:20:05,VALID,1007.65,VALID,0,VALID,104,VALID,0,VALID,24.9803,VALID,185,VALID,0.40625,
2012-05-20, 01:21:05,VALID,1007.64,VALID,0,VALID,104,VALID,0,VALID,24.9803,VALID,154,VALID,0.823438,
2012-05-20, 01:22:05,VALID,1007.65,VALID,0,VALID,104,VALID,0,VALID,24.9998,VALID,165,VALID,0.703516,
2012-05-20, 01:23:05,VALID,1007.63,VALID,0,VALID,104,VALID,0,VALID,24.9998,VALID,155,VALID,0.199609,
2012-05-20, 01:24:05,VALID,1007.62,VALID,0,VALID,104,VALID,0,VALID,24.9998,VALID,194,VALID,0.445313,
2012-05-20, 01:25:05,VALID,1007.63,VALID,0,VALID,104,VALID,0,VALID,25.0193,VALID,194,VALID,0.512891,
2012-05-20, 01:26:05,VALID,1007.65,VALID,0,VALID,104,VALID,0,VALID,24.9979,VALID,194,VALID,0.308203,
2012-05-20, 01:27:05,VALID,1007.69,VALID,0,VALID,104,VALID,0,VALID,25.0388,VALID,194,VALID,0.164844,
2012-05-20, 01:28:05,VALID,1007.69,VALID,0,VALID,104,VALID,0,VALID,25.0778,VALID,194,VALID,0.412109,
2012-05-20, 01:29:05,VALID,1007.71,VALID,0,VALID,104,VALID,0,VALID,25.0778,VALID,202,VALID,0.425,
2012-05-20, 01:30:05,VALID,1007.73,VALID,0,VALID,104,VALID,0,VALID,25.0759,VALID,209,VALID,1.00508,
2012-05-20, 01:31:05,VALID,1007.74,VALID,0,VALID,104,VALID,0,VALID,25.1167,VALID,228,VALID,1.02734,
2012-05-20, 01:32:05,VALID,1007.74,VALID,0,VALID,104,VALID,0,VALID,25.1167,VALID,216,VALID,1.36289,
2012-05-20, 01:33:05,VALID,1007.73,VALID,0,VALID,104,VALID,0,VALID,25.1167,VALID,212,VALID,0.934766,
2012-05-20, 01:34:05,VALID,1007.74,VALID,0,VALID,104,VALID,0,VALID,25.1167,VALID,213,VALID,0.767969,
2012-05-20, 01:35:05,VALID,1007.71,VALID,0,VALID,104,VALID,0,VALID,25.0973,VALID,224,VALID,0.895312,
2012-05-20, 01:36:05,VALID,1007.7,VALID,0,VALID,104,VALID,0,VALID,25.0564,VALID,213,VALID,1.05352,
2012-05-20, 01:37:05,VALID,1007.66,VALID,0,VALID,104,VALID,0,VALID,25.0369,VALID,211,VALID,0.945313,
2012-05-20, 01:38:05,VALID,1007.67,VALID,0,VALID,104,VALID,0,VALID,25.0388,VALID,232,VALID,0.93125,
2012-05-20, 01:39:05,VALID,1007.67,VALID,0,VALID,104,VALID,0,VALID,25.0388,VALID,184,VALID,0.624219,
2012-05-20, 01:40:05,VALID,1007.67,VALID,0,VALID,104,VALID,0,VALID,24.9784,VALID,211,VALID,0.800781,
2012-05-20, 01:41:05,VALID,1007.66,VALID,0,VALID,104,VALID,0,VALID,24.9784,VALID,211,VALID,0.272266,
2012-05-20, 01:42:05,VALID,1007.67,VALID,0,VALID,104,VALID,0,VALID,24.9394,VALID,202,VALID,1.11523,
2012-05-20, 01:43:05,VALID,1007.64,VALID,0,VALID,104,VALID,0,VALID,24.9413,VALID,200,VALID,0.496875,
2012-05-20, 01:44:05,VALID,1007.64,VALID,0,VALID,104,VALID,0,VALID,24.9218,VALID,205,VALID,0.461719,
2012-05-20, 01:45:05,VALID,1007.65,VALID,0,VALID,104,VALID,0,VALID,24.9023,VALID,188,VALID,0.576563,
2012-05-20, 01:46:05,VALID,1007.67,VALID,0,VALID,104,VALID,0,VALID,24.8615,VALID,206,VALID,0.999609,
2012-05-20, 01:47:05,VALID,1007.66,VALID,0,VALID,104,VALID,0,VALID,24.8438,VALID,210,VALID,0.991797,
2012-05-20, 01:48:05,VALID,1007.69,VALID,0,VALID,104,VALID,0,VALID,24.8438,VALID,205,VALID,0.684766,
2012-05-20, 01:49:05,VALID,1007.7,VALID,0,VALID,104,VALID,0,VALID,24.8438,VALID,214,VALID,1.29961,
2012-05-20, 01:50:05,VALID,1007.68,VALID,0,VALID,104,VALID,0,VALID,24.7854,VALID,190,VALID,1.06094,
2012-05-20, 01:51:05,VALID,1007.72,VALID,0,VALID,104,VALID,0,VALID,24.7659,VALID,184,VALID,1.08008,
2012-05-20, 01:52:05,VALID,1007.71,VALID,0,VALID,104,VALID,0,VALID,24.7464,VALID,207,VALID,0.892578,
2012-05-20, 01:53:05,VALID,1007.71,VALID,0,VALID,104,VALID,0,VALID,24.7464,VALID,182,VALID,0.649219,
2012-05-20, 01:54:05,VALID,1007.68,VALID,0,VALID,104,VALID,0,VALID,24.7269,VALID,167,VALID,1.01211,
2012-05-20, 01:55:05,VALID,1007.69,VALID,0,VALID,104,VALID,0,VALID,24.686,VALID,184,VALID,1.05781,
2012-05-20, 01:56:05,VALID,1007.68,VALID,0,VALID,104,VALID,0,VALID,24.6471,VALID,188,VALID,1.07148,
2012-05-20, 01:57:05,VALID,1007.67,VALID,0,VALID,104,VALID,0,VALID,24.6684,VALID,202,VALID,1.02813,
2012-05-20, 01:58:05,VALID,1007.67,VALID,0,VALID,104,VALID,0,VALID,24.6276,VALID,194,VALID,1.30234,
2012-05-20, 01:59:05,VALID,1007.66,VALID,0,VALID,104,VALID,0,VALID,24.6489,VALID,190,VALID,0.7625,
2012-05-20, 02:00:05,VALID,1007.65,VALID,0,VALID,104,VALID,0,VALID,24.6081,VALID,186,VALID,0.642969,
2012-05-20, 02:01:05,VALID,1007.64,VALID,0,VALID,104,VALID,0,VALID,24.6081,VALID,204,VALID,0.647266,
2012-05-20, 02:02:05,VALID,1007.63,VALID,0,VALID,104,VALID,0,VALID,24.6099,VALID,192,VALID,0.824219,
2012-05-20, 02:03:05,VALID,1007.63,VALID,0,VALID,104,VALID,0,VALID,24.5886,VALID,174,VALID,0.794922,
2012-05-20, 02:04:05,VALID,1007.62,VALID,0,VALID,104,VALID,0,VALID,24.5905,VALID,182,VALID,1.21641,
2012-05-20, 02:05:05,VALID,1007.63,VALID,0,VALID,104,VALID,0,VALID,24.5905,VALID,192,VALID,0.60625,
2012-05-20, 02:06:05,VALID,1007.62,VALID,0,VALID,104,VALID,0,VALID,24.571,VALID,219,VALID,0.925,
2012-05-20, 02:07:05,VALID,1007.59,VALID,0,VALID,104,VALID,0,VALID,24.5691,VALID,216,VALID,0.567969,
2012-05-20, 02:08:05,VALID,1007.59,VALID,0,VALID,104,VALID,0,VALID,24.6099,VALID,216,VALID,0.551172,
2012-05-20, 02:09:05,VALID,1007.59,VALID,0,VALID,104,VALID,0,VALID,24.5886,VALID,216,VALID,0.194531,
2012-05-20, 02:10:05,VALID,1007.55,VALID,0,VALID,104,VALID,0,VALID,24.6099,VALID,216,VALID,0,
2012-05-20, 02:11:05,VALID,1007.53,VALID,0,VALID,104,VALID,0,VALID,24.6081,VALID,216,VALID,0.303906,
2012-05-20, 02:12:05,VALID,1007.5,VALID,0,VALID,104,VALID,0,VALID,24.6294,VALID,216,VALID,0.279687,
2012-05-20, 02:13:05,VALID,1007.49,VALID,0,VALID,104,VALID,0,VALID,24.6099,VALID,216,VALID,0.310156,
2012-05-20, 02:14:05,VALID,1007.47,VALID,0,VALID,104,VALID,0,VALID,24.6099,VALID,219,VALID,0.371094,
2012-05-20, 02:15:05,VALID,1007.48,VALID,0,VALID,104,VALID,0,VALID,24.6099,VALID,219,VALID,0.132813,
2012-05-20, 02:16:05,VALID,1007.49,VALID,0,VALID,104,VALID,0,VALID,24.6099,VALID,227,VALID,0.383984,
2012-05-20, 02:17:05,VALID,1007.5,VALID,0,VALID,104,VALID,0,VALID,24.5886,VALID,227,VALID,0.244141,
2012-05-20, 02:18:05,VALID,1007.52,VALID,0,VALID,104,VALID,0,VALID,24.5691,VALID,227,VALID,0.357031,
2012-05-20, 02:19:05,VALID,1007.49,VALID,0,VALID,104,VALID,0,VALID,24.5691,VALID,228,VALID,0.301953,
2012-05-20, 02:20:05,VALID,1007.46,VALID,0,VALID,104,VALID,0,VALID,24.5691,VALID,230,VALID,0.0046875,
2012-05-20, 02:21:05,VALID,1007.46,VALID,0,VALID,104,VALID,0,VALID,24.5905,VALID,230,VALID,0.119141,
2012-05-20, 02:22:05,VALID,1007.45,VALID,0,VALID,104,VALID,0,VALID,24.5496,VALID,230,VALID,0,
2012-05-20, 02:23:04,VALID,1007.45,VALID,0,VALID,104,VALID,0,VALID,24.5515,VALID,230,VALID,0,
2012-05-20, 02:24:04,VALID,1007.46,VALID,0,VALID,104,VALID,0,VALID,24.532,VALID,230,VALID,0,
2012-05-20, 02:25:04,VALID,1007.49,VALID,0,VALID,104,VALID,0,VALID,24.5106,VALID,230,VALID,0,
2012-05-20, 02:26:04,VALID,1007.55,VALID,0,VALID,104,VALID,0,VALID,24.532,VALID,230,VALID,0,
2012-05-20, 02:27:04,VALID,1007.57,VALID,0,VALID,104,VALID,0,VALID,24.5125,VALID,230,VALID,0,
2012-05-20, 02:28:04,VALID,1007.61,VALID,0,VALID,104,VALID,0.112112,VALID,24.4911,VALID,230,VALID,0,
2012-05-20, 02:29:04,VALID,1007.62,VALID,0,VALID,104,VALID,0,VALID,24.4717,VALID,230,VALID,0,
2012-05-20, 02:30:04,VALID,1007.66,VALID,0,VALID,104,VALID,0,VALID,24.4522,VALID,230,VALID,0.380078,
2012-05-20, 02:31:04,VALID,1007.66,VALID,0,VALID,104,VALID,0,VALID,24.454,VALID,230,VALID,0.321094,
2012-05-20, 02:32:04,VALID,1007.65,VALID,0,VALID,104,VALID,0.112112,VALID,24.4522,VALID,230,VALID,0.317187,
2012-05-20, 02:33:04,VALID,1007.71,VALID,0,VALID,104,VALID,0,VALID,24.4345,VALID,230,VALID,0.222656,
2012-05-20, 02:34:04,VALID,1007.69,VALID,0,VALID,104,VALID,0,VALID,24.4345,VALID,230,VALID,0.205078,
2012-05-20, 02:35:04,VALID,1007.73,VALID,0,VALID,104,VALID,0,VALID,24.415,VALID,230,VALID,0.250391,
2012-05-20, 02:36:04,VALID,1007.73,VALID,0,VALID,104,VALID,0,VALID,24.3956,VALID,230,VALID,0.451562,
2012-05-20, 02:37:04,VALID,1007.73,VALID,0,VALID,104,VALID,0,VALID,24.3956,VALID,230,VALID,0.264062,
2012-05-20, 02:38:04,VALID,1007.72,VALID,0,VALID,104,VALID,0,VALID,24.3566,VALID,230,VALID,0.445313,
2012-05-20, 02:39:04,VALID,1007.72,VALID,0,VALID,104,VALID,0,VALID,24.3566,VALID,230,VALID,0.345703,
2012-05-20, 02:40:04,VALID,1007.71,VALID,0,VALID,104,VALID,0,VALID,24.2963,VALID,230,VALID,0.398047,
2012-05-20, 02:41:04,VALID,1007.69,VALID,0,VALID,104,VALID,0,VALID,24.3176,VALID,230,VALID,0.210547,
2012-05-20, 02:42:04,VALID,1007.7,VALID,0,VALID,104,VALID,0,VALID,24.2981,VALID,230,VALID,0,
2012-05-20, 02:43:04,VALID,1007.71,VALID,0,VALID,104,VALID,0,VALID,24.2591,VALID,230,VALID,0.268359,
2012-05-20, 02:44:04,VALID,1007.75,VALID,0,VALID,104,VALID,0,VALID,24.2378,VALID,230,VALID,0,
2012-05-20, 02:45:04,VALID,1007.78,VALID,0,VALID,104,VALID,0,VALID,24.2378,VALID,230,VALID,0,
2012-05-20, 02:46:04,VALID,1007.82,VALID,0,VALID,104,VALID,0,VALID,24.2591,VALID,230,VALID,0,
2012-05-20, 02:47:04,VALID,1007.82,VALID,0,VALID,104,VALID,0,VALID,24.2396,VALID,230,VALID,0.00546875,
2012-05-20, 02:48:04,VALID,1007.8,VALID,0,VALID,104,VALID,0,VALID,24.2396,VALID,230,VALID,0,
2012-05-20, 02:49:04,VALID,1007.79,VALID,0,VALID,104,VALID,0,VALID,24.2183,VALID,230,VALID,0,
2012-05-20, 02:50:04,VALID,1007.76,VALID,0,VALID,104,VALID,0,VALID,24.2396,VALID,230,VALID,0.157813,
2012-05-20, 02:51:04,VALID,1007.74,VALID,0,VALID,104,VALID,0,VALID,24.2396,VALID,230,VALID,0.129688,
2012-05-20, 02:52:04,VALID,1007.74,VALID,0,VALID,104,VALID,0.112112,VALID,24.2183,VALID,230,VALID,0.363281,
2012-05-20, 02:53:04,VALID,1007.77,VALID,0,VALID,104,VALID,0,VALID,24.2396,VALID,230,VALID,0.423438,
2012-05-20, 02:54:04,VALID,1007.77,VALID,0,VALID,104,VALID,0,VALID,24.1988,VALID,230,VALID,0.273047,
2012-05-20, 02:55:04,VALID,1007.79,VALID,0,VALID,104,VALID,0,VALID,24.1988,VALID,230,VALID,0,
2012-05-20, 02:56:04,VALID,1007.8,VALID,0,VALID,104,VALID,0,VALID,24.2202,VALID,230,VALID,0,
2012-05-20, 02:57:04,VALID,1007.84,VALID,0,VALID,104,VALID,0,VALID,24.2007,VALID,230,VALID,0,
2012-05-20, 02:58:04,VALID,1007.84,VALID,0,VALID,104,VALID,0.112112,VALID,24.1599,VALID,230,VALID,0,
2012-05-20, 02:59:04,VALID,1007.84,VALID,0,VALID,104,VALID,0,VALID,24.1793,VALID,230,VALID,0.0695312,
2012-05-20, 03:00:04,VALID,1007.85,VALID,0,VALID,104,VALID,0,VALID,24.1812,VALID,230,VALID,0,
2012-05-20, 03:01:04,VALID,1007.83,VALID,0,VALID,104,VALID,0,VALID,24.1812,VALID,230,VALID,0,
2012-05-20, 03:02:04,VALID,1007.84,VALID,0,VALID,104,VALID,0,VALID,24.1812,VALID,230,VALID,0,
2012-05-20, 03:03:04,VALID,1007.84,VALID,0,VALID,104,VALID,0.112112,VALID,24.1599,VALID,230,VALID,0,
2012-05-20, 03:04:04,VALID,1007.82,VALID,0,VALID,104,VALID,0.112112,VALID,24.1599,VALID,230,VALID,0,
2012-05-20, 03:05:04,VALID,1007.81,VALID,0,VALID,104,VALID,0,VALID,24.1617,VALID,230,VALID,0,
2012-05-20, 03:06:04,VALID,1007.79,VALID,0,VALID,104,VALID,0,VALID,24.1812,VALID,230,VALID,0,
2012-05-20, 03:07:04,VALID,1007.77,VALID,0,VALID,104,VALID,0,VALID,24.1617,VALID,230,VALID,0,
2012-05-20, 03:08:04,VALID,1007.75,VALID,0,VALID,104,VALID,0.112112,VALID,24.1617,VALID,230,VALID,0,
2012-05-20, 03:09:04,VALID,1007.75,VALID,0,VALID,104,VALID,0,VALID,24.1422,VALID,230,VALID,0,
2012-05-20, 03:10:04,VALID,1007.76,VALID,0,VALID,104,VALID,0,VALID,24.1617,VALID,230,VALID,0,
2012-05-20, 03:11:04,VALID,1007.75,VALID,0,VALID,104,VALID,0,VALID,24.1617,VALID,230,VALID,0,
2012-05-20, 03:12:04,VALID,1007.79,VALID,0,VALID,104,VALID,0,VALID,24.1617,VALID,216,VALID,0.551562,
2012-05-20, 03:13:04,VALID,1007.82,VALID,0,VALID,104,VALID,0,VALID,24.1793,VALID,215,VALID,0.616406,
2012-05-20, 03:14:04,VALID,1007.8,VALID,0,VALID,104,VALID,0,VALID,24.1617,VALID,215,VALID,0.583594,
2012-05-20, 03:15:04,VALID,1007.83,VALID,0,VALID,104,VALID,0,VALID,24.1422,VALID,214,VALID,0.652734,
2012-05-20, 03:16:04,VALID,1007.84,VALID,0,VALID,104,VALID,0,VALID,24.1422,VALID,214,VALID,0.631641,
2012-05-20, 03:17:04,VALID,1007.84,VALID,0,VALID,104,VALID,0,VALID,24.1812,VALID,214,VALID,0.533203,
2012-05-20, 03:18:04,VALID,1007.86,VALID,0,VALID,104,VALID,0,VALID,24.1812,VALID,213,VALID,0.324609,
2012-05-20, 03:19:04,VALID,1007.85,VALID,0,VALID,104,VALID,0,VALID,24.1404,VALID,213,VALID,0.328125,
2012-05-20, 03:20:04,VALID,1007.87,VALID,0,VALID,104,VALID,0,VALID,24.1812,VALID,210,VALID,0.526563,
2012-05-20, 03:21:04,VALID,1007.88,VALID,0,VALID,104,VALID,0,VALID,24.1812,VALID,209,VALID,0.43125,
2012-05-20, 03:22:04,VALID,1007.89,VALID,0,VALID,104,VALID,0,VALID,24.2007,VALID,209,VALID,0.346875,
2012-05-20, 03:23:04,VALID,1007.89,VALID,0,VALID,104,VALID,0,VALID,24.1812,VALID,209,VALID,0.278125,
2012-05-20, 03:24:04,VALID,1007.97,VALID,0,VALID,104,VALID,0,VALID,24.1812,VALID,209,VALID,0.376563,
2012-05-20, 03:25:04,VALID,1008.01,VALID,0,VALID,104,VALID,0,VALID,24.1812,VALID,209,VALID,0.51875,
2012-05-20, 03:26:04,VALID,1008.03,VALID,0,VALID,104,VALID,0,VALID,24.1812,VALID,168,VALID,0.778125,
2012-05-20, 03:27:04,VALID,1008.04,VALID,0,VALID,104,VALID,0,VALID,24.1422,VALID,148,VALID,0.744531,
2012-05-20, 03:28:04,VALID,1008.04,VALID,0,VALID,104,VALID,0,VALID,24.1422,VALID,148,VALID,0.776172,
2012-05-20, 03:29:04,VALID,1008.03,VALID,0,VALID,104,VALID,0,VALID,24.1617,VALID,147,VALID,0.953125,
2012-05-20, 03:30:04,VALID,1007.98,VALID,0,VALID,104,VALID,0,VALID,24.1599,VALID,137,VALID,1.07734,
2012-05-20, 03:31:04,VALID,1008.01,VALID,0,VALID,104,VALID,0,VALID,24.2007,VALID,151,VALID,0.865625,
2012-05-20, 03:32:04,VALID,1007.95,VALID,0,VALID,104,VALID,0,VALID,24.1812,VALID,161,VALID,0.685938,
2012-05-20, 03:33:04,VALID,1007.94,VALID,0,VALID,104,VALID,0,VALID,24.1812,VALID,151,VALID,1.30938,
2012-05-20, 03:34:04,VALID,1007.96,VALID,0,VALID,104,VALID,0,VALID,24.1812,VALID,177,VALID,0.863672,
2012-05-20, 03:35:04,VALID,1007.94,VALID,0,VALID,104,VALID,0,VALID,24.1812,VALID,159,VALID,0.917188,
2012-05-20, 03:36:04,VALID,1007.99,VALID,0,VALID,104,VALID,0,VALID,24.1812,VALID,166,VALID,1.47891,
2012-05-20, 03:37:04,VALID,1007.97,VALID,0,VALID,104,VALID,0,VALID,24.1812,VALID,190,VALID,1.36953,
2012-05-20, 03:38:04,VALID,1007.96,VALID,0,VALID,104,VALID,0,VALID,24.1812,VALID,175,VALID,1.61484,
2012-05-20, 03:39:04,VALID,1007.99,VALID,0,VALID,104,VALID,0,VALID,24.1812,VALID,162,VALID,1.35781,
2012-05-20, 03:40:04,VALID,1008,VALID,0,VALID,104,VALID,0,VALID,24.1812,VALID,154,VALID,1.36914,
2012-05-20, 03:41:04,VALID,1008,VALID,0,VALID,104,VALID,0,VALID,24.2007,VALID,163,VALID,1.30977,
2012-05-20, 03:42:04,VALID,1007.98,VALID,0,VALID,104,VALID,0,VALID,24.1812,VALID,146,VALID,1.28867,
2012-05-20, 03:43:04,VALID,1007.97,VALID,0,VALID,104,VALID,0,VALID,24.1812,VALID,129,VALID,1.48711,
2012-05-20, 03:44:04,VALID,1007.97,VALID,0,VALID,104,VALID,0,VALID,24.1404,VALID,144,VALID,1.67734,
2012-05-20, 03:45:04,VALID,1007.98,VALID,0,VALID,104,VALID,0,VALID,24.1617,VALID,180,VALID,0.818359,
2012-05-20, 03:46:04,VALID,1007.97,VALID,0,VALID,104,VALID,0,VALID,24.1617,VALID,164,VALID,1.57109,
2012-05-20, 03:47:04,VALID,1008,VALID,0,VALID,104,VALID,0.112112,VALID,24.1404,VALID,165,VALID,1.0582,
2012-05-20, 03:48:04,VALID,1008,VALID,0,VALID,104,VALID,0,VALID,24.1617,VALID,168,VALID,1.14883,
2012-05-20, 03:49:04,VALID,1008.05,VALID,0,VALID,104,VALID,0,VALID,24.1209,VALID,182,VALID,0.916406,
2012-05-20, 03:50:04,VALID,1008.11,VALID,0,VALID,104,VALID,0,VALID,24.1617,VALID,180,VALID,1.09141,
2012-05-20, 03:51:04,VALID,1008.14,VALID,0,VALID,104,VALID,0.112112,VALID,24.1422,VALID,175,VALID,0.662109,
2012-05-20, 03:52:04,VALID,1008.19,VALID,0,VALID,104,VALID,0,VALID,24.1209,VALID,180,VALID,1.14102,
2012-05-20, 03:53:04,VALID,1008.23,VALID,0,VALID,104,VALID,0,VALID,24.1422,VALID,184,VALID,1.3332,
2012-05-20, 03:54:04,VALID,1008.25,VALID,0,VALID,104,VALID,0,VALID,24.1227,VALID,197,VALID,2.27891,